DW7857 Weather Reports


Display with metric or nautical units.
time (UTC)temp
F
wind
direction
speed
MPH
gust
MPH
rain 1hr
in
rain 24hr
in
rain mn
in
humidity
%
barometer
mb
20181216124011 49 216 4.0 6.0 0.00 0.00 0.00 80 999.2
20181216123011 48 224 3.0 8.0 0.00 0.00 0.00 79 999.1
20181216122011 48 197 3.0 4.0 0.00 0.00 0.00 79 999.3
20181216121011 48 208 3.0 4.0 0.00 0.00 0.00 79 999.7
20181216120011 47 210 4.0 4.0 0.00 0.00 0.00 78 999.8
20181216115011 47 211 1.0 4.0 0.00 0.00 0.00 78 1000.0
20181216114011 46 202 2.0 4.0 0.00 0.00 0.00 78 1000.3
20181216113011 46 207 2.0 4.0 0.00 0.00 0.00 79 1000.3
20181216112010 46 0 0.0 0.0 0.00 0.00 0.00 79 1000.3
20181216111011 46 0 0.0 0.0 0.00 0.00 0.00 79 1000.6
20181216110011 45 0 0.0 0.0 0.00 0.00 0.00 84 1000.7
20181216105011 45 0 0.0 0.0 0.00 0.00 0.00 84 1001.0
20181216104011 44 0 0.0 0.0 0.00 0.00 0.00 84 1001.1
20181216103011 44 0 0.0 0.0 0.00 0.00 0.00 85 1001.4
20181216102011 44 0 0.0 0.0 0.00 0.00 0.00 85 1001.3
20181216101011 43 0 0.0 0.0 0.00 0.00 0.00 85 1001.5
20181216100011 42 0 0.0 0.0 0.00 0.00 0.00 85 1001.5
20181216095011 42 0 0.0 0.0 0.00 0.00 0.00 85 1001.3
20181216094011 41 0 0.0 0.0 0.00 0.00 0.00 85 1001.4
20181216093011 41 0 0.0 0.0 0.00 0.00 0.00 84 1001.6
20181216092011 41 0 0.0 0.0 0.00 0.00 0.00 84 1001.6
20181216091011 40 0 0.0 0.0 0.00 0.00 0.00 84 1001.6
20181216090011 40 0 0.0 0.0 0.00 0.00 0.00 84 1001.7
20181216085011 39 0 0.0 0.0 0.00 0.00 0.00 84 1001.6
20181216084010 39 0 0.0 0.0 0.00 0.00 0.00 83 1001.8
20181216083010 39 0 0.0 0.0 0.00 0.00 0.00 83 1001.5
20181216082010 39 0 0.0 0.0 0.00 0.00 0.00 83 1001.9
20181216081011 39 0 0.0 0.0 0.00 0.00 0.00 83 1001.7
20181216080010 39 0 0.0 0.0 0.00 0.00 0.00 82 1001.5
20181216075011 39 0 0.0 0.0 0.00 0.00 0.00 81 1001.7
20181216074010 39 0 0.0 0.0 0.00 0.00 0.00 80 1001.5
20181216073011 40 212 0.0 2.0 0.00 0.00 0.00 80 1001.5
20181216072011 41 189 1.0 3.0 0.00 0.00 0.00 80 1001.4
20181216071011 42 189 3.0 4.0 0.00 0.00 0.00 80 1001.5
20181216070011 42 183 5.0 5.0 0.00 0.00 0.00 81 1001.3
20181216065011 42 185 3.0 5.0 0.00 0.00 0.00 81 1001.4
20181216064011 42 203 3.0 4.0 0.00 0.00 0.00 81 1001.6
20181216063011 42 195 3.0 4.0 0.00 0.00 0.00 82 1001.5
20181216062011 42 205 5.0 8.0 0.00 0.00 0.00 83 1001.5
20181216061011 41 190 5.0 6.0 0.00 0.00 0.00 84 1001.5
20181216060011 41 196 4.0 6.0 0.00 0.00 0.00 84 1001.7
20181216055011 41 192 4.0 6.0 0.00 0.00 0.00 83 1001.8
20181216054011 41 222 3.0 5.0 0.00 0.00 0.00 82 1001.7
20181216053011 41 196 1.0 3.0 0.00 0.00 0.00 82 1001.9
20181216052010 42 191 1.0 2.0 0.00 0.00 0.00 81 1001.5
20181216051010 42 141 0.0 2.0 0.00 0.00 0.00 81 1001.5
20181216050011 42 167 2.0 4.0 0.00 0.00 0.00 81 1001.4
20181216045011 43 205 5.0 6.0 0.00 0.00 0.00 82 1001.5
20181216044010 43 201 5.0 6.0 0.00 0.00 0.00 82 1001.6
20181216043011 43 199 4.0 7.0 0.00 0.00 0.00 82 1001.5
20181216042010 43 209 5.0 6.0 0.00 0.00 0.00 81 1001.5
20181216041011 43 213 4.0 6.0 0.00 0.00 0.00 81 1001.4
20181216040011 43 205 5.0 6.0 0.00 0.00 0.00 81 1001.6
20181216035010 43 223 7.0 9.0 0.00 0.00 0.00 81 1001.3
20181216034010 43 205 5.0 8.0 0.00 0.00 0.00 80 1001.5
20181216033010 43 208 6.0 8.0 0.00 0.00 0.00 80 1001.3
20181216032010 43 208 5.0 8.0 0.00 0.00 0.00 80 1001.3
20181216031010 43 221 3.0 5.0 0.00 0.00 0.00 78 1001.1
20181216030011 44 194 3.0 6.0 0.00 0.00 0.00 77 1001.3
20181216025011 44 203 4.0 6.0 0.00 0.00 0.00 76 1001.4
20181216024011 44 205 5.0 9.0 0.00 0.00 0.00 76 1001.5
20181216023011 45 215 5.0 7.0 0.00 0.00 0.00 76 1001.3
20181216022011 45 204 4.0 6.0 0.00 0.00 0.00 76 1001.2
20181216021011 45 220 7.0 11.0 0.00 0.00 0.00 76 1001.0
20181216020011 45 191 5.0 7.0 0.00 0.00 0.00 76 1001.1
20181216015011 45 189 4.0 7.0 0.00 0.00 0.00 76 1001.1
20181216014011 45 239 7.0 12.0 0.00 0.00 0.00 77 1000.8
20181216013011 45 234 5.0 8.0 0.00 0.00 0.00 78 1000.8
20181216012011 45 230 4.0 7.0 0.00 0.00 0.00 79 1000.7
20181216011011 45 218 4.0 6.0 0.00 0.00 0.00 80 1000.5
20181216010011 45 196 4.0 6.0 0.00 0.00 0.00 80 1000.4
20181216005011 45 199 5.0 5.0 0.00 0.00 0.00 80 1000.2
20181216004011 45 192 4.0 6.0 0.00 0.00 0.00 80 1000.5
20181216003011 45 198 5.0 8.0 0.00 0.00 0.00 80 1000.3
20181216002011 45 202 6.0 8.0 0.00 0.00 0.00 80 1000.4
20181216001011 45 202 5.0 8.0 0.00 0.00 0.00 80 1000.4
20181216000019 45 189 4.0 6.0 0.00 0.00 0.00 80 1000.3
20181215235011 45 194 4.0 6.0 0.00 0.00 0.58 80 1000.3
20181215234011 46 269 4.0 6.0 0.00 0.00 0.58 73 1000.1
20181215233012 46 226 5.0 8.0 0.00 0.00 0.58 73 1000.2
20181215232011 46 214 6.0 10.0 0.00 0.00 0.58 72 1000.1
20181215231011 46 218 7.0 9.0 0.00 0.00 0.58 72 1000.1
20181215230012 46 194 5.0 8.0 0.00 0.00 0.58 73 999.9
20181215225011 46 241 5.0 7.0 0.00 0.00 0.58 73 999.7
20181215224011 46 175 5.0 10.0 0.00 0.00 0.58 72 999.7
20181215223011 47 199 7.0 12.0 0.00 0.00 0.58 73 999.6
20181215222011 47 200 6.0 8.0 0.00 0.00 0.58 73 999.5
20181215221011 46 192 6.0 10.0 0.00 0.00 0.58 74 999.3
20181215220011 47 211 6.0 8.0 0.00 0.00 0.58 74 999.4
20181215215011 47 236 6.0 11.0 0.00 0.00 0.58 75 999.3
20181215214011 47 217 8.0 11.0 0.00 0.00 0.58 75 999.1
20181215213011 47 259 9.0 12.0 0.00 0.00 0.58 73 999.2
20181215212011 48 225 9.0 15.0 0.00 0.00 0.58 71 998.9
20181215211011 48 240 7.0 13.0 0.00 0.00 0.58 69 998.7
20181215210012 48 228 9.0 16.0 0.00 0.00 0.58 68 998.2
20181215205011 48 213 10.0 15.0 0.00 0.00 0.58 69 998.1
20181215204011 48 250 10.0 15.0 0.00 0.00 0.58 69 998.1
20181215203011 48 207 11.0 15.0 0.00 0.00 0.58 69 997.9
20181215202011 48 217 10.0 15.0 0.00 0.00 0.58 70 997.9
20181215201011 49 228 9.0 13.0 0.00 0.00 0.58 70 997.7
20181215200011 52 135 13.0 13.0 0.00 0.58 0.58 90 997.6
20181215195011 52 135 13.0 13.0 0.00 0.58 0.58 90 997.6
20181215194011 52 135 13.0 13.0 0.00 0.58 0.58 90 997.6
20181215193011 52 135 13.0 13.0 0.00 0.58 0.58 90 997.3
20181215192011 52 135 13.0 13.0 0.00 0.58 0.58 90 997.3
20181215191011 52 135 13.0 13.0 0.00 0.58 0.58 90 997.1
20181215190011 52 135 13.0 13.0 0.00 0.58 0.58 90 997.0
20181215185011 52 135 13.0 13.0 0.00 0.58 0.58 90 997.0
20181215184011 52 135 13.0 13.0 0.00 0.58 0.58 90 996.9
20181215183011 52 135 13.0 13.0 0.00 0.58 0.58 90 996.5
20181215182011 52 135 13.0 13.0 0.00 0.58 0.58 90 996.4
20181215181011 52 135 13.0 13.0 0.00 0.58 0.58 90 996.2
20181215180011 52 135 13.0 13.0 0.00 0.58 0.58 90 996.4
20181215175011 52 135 13.0 13.0 0.00 0.58 0.58 90 996.1
20181215174011 52 135 13.0 13.0 0.00 0.58 0.58 90 996.1
20181215173011 52 135 13.0 13.0 0.00 0.58 0.58 90 995.8
20181215172011 52 135 13.0 13.0 0.00 0.58 0.58 90 995.8
20181215171011 52 135 13.0 13.0 0.00 0.58 0.58 90 995.4
20181215170011 52 135 13.0 13.0 0.00 0.58 0.58 90 994.7
20181215165011 52 135 13.0 13.0 0.00 0.58 0.58 90 994.3
20181215164011 52 135 13.0 13.0 0.00 0.58 0.58 90 993.9
20181215163011 52 135 13.0 13.0 0.02 0.58 0.58 90 993.9
20181215162011 52 135 13.0 13.0 0.07 0.58 0.58 90 993.9
20181215161011 52 135 13.0 13.0 0.09 0.58 0.58 90 994.1
20181215160011 52 135 13.0 13.0 0.11 0.58 0.58 90 994.0
20181215155011 52 135 13.0 13.0 0.12 0.58 0.58 90 994.3
20181215154011 52 177 13.0 15.0 0.15 0.58 0.58 90 994.8
20181215153011 52 212 10.0 15.0 0.15 0.56 0.56 90 994.5
20181215152011 51 214 8.0 11.0 0.14 0.51 0.51 89 994.1
20181215151011 50 212 9.0 13.0 0.14 0.48 0.48 88 994.5
20181215150011 49 166 6.0 11.0 0.15 0.47 0.47 87 995.0
20181215145011 48 66 5.0 8.0 0.14 0.46 0.46 87 995.4
20181215144011 47 189 5.0 9.0 0.12 0.43 0.43 86 996.0
20181215143011 47 193 6.0 8.0 0.09 0.40 0.40 85 996.1
20181215142011 46 129 8.0 10.0 0.06 0.37 0.37 85 996.7
20181215141011 45 129 7.0 11.0 0.04 0.34 0.34 90 997.0
20181215140011 45 119 8.0 13.0 0.02 0.32 0.32 90 997.5
20181215135011 44 128 7.0 13.0 0.02 0.32 0.32 90 997.5
20181215134011 44 162 8.0 14.0 0.01 0.31 0.31 89 997.9
20181215133011 44 184 8.0 11.0 0.01 0.31 0.31 89 998.3
20181215132011 44 183 9.0 17.0 0.02 0.31 0.31 89 998.7
20181215131011 43 79 9.0 14.0 0.04 0.31 0.31 89 999.2
20181215130011 43 345 10.0 14.0 0.04 0.30 0.30 89 999.4
20181215125011 43 156 8.0 11.0 0.05 0.30 0.30 89 1000.0